Weather History for Heber, UT

Change the Weather History Date:

Monday, February 11, 2013

  Actual Average (KPVU) Record (KPVU)
Temperature  
Mean Temperature 16 °F -  
Max Temperature 30 °F 38 °F 57 °F (2012)
Min Temperature 3 °F 23 °F -3 °F (1985)
Degree Days  
Heating Degree Days 48    
Moisture  
Dew Point 10 °F    
Average Humidity 76    
Maximum Humidity 93    
Minimum Humidity 47    
Precipitation  
Precipitation 0.00 in - - ()
Sea Level Pressure  
Sea Level Pressure 30.05 in    
Wind  
Wind Speed 2 mph (SSE)    
Max Wind Speed 13 mph    
Max Gust Speed -    
Visibility 8 miles    
Events Snow    
Averages and records for this station are not official NWS values.
T = Trace of Precipitation, MM = Missing Value Source: NWS Daily Summary

Daily Weather History Graph

Daily Weather History Graph

Search for Another Location

Airport:

Trip Planner

Search our weather history database for the weather conditions in past years. The results will help you decide how hot, cold, wet, or windy it might be!

Date:

Astronomy

Feb. 11, 2013 Rise Set
Actual Time 7:23 AM MST 5:56 PM MST
Civil Twilight 6:55 AM MST 6:24 PM MST
Nautical Twilight 6:23 AM MST 6:56 PM MST
Astronomical Twilight 5:51 AM MST 7:28 PM MST
Moon 7:49 AM MST (2/11) 7:57 PM MST (2/11)
Length of Visible Light 11h 28m
Length of Day
10h 32m
Waxing Crescent, 3% of the Moon is Illuminated
Feb 11
Waxing Crescent
Feb 17
First Quarter
Feb 25
Full
Mar 4
Last Quarter
Mar 11
New

Hourly Weather History & Observations

Time (MST) Temp. Windchill Dew Point Humidity Pressure Visibility Wind Dir Wind Speed Gust Speed Precip Events Conditions
12:15 AM 21.2 °F 16.4 °F 17.6 °F 86% 29.96 in 10.0 mi North 3.5 mph - N/A Snow Light Snow
12:35 AM 21.2 °F - 17.6 °F 86% 29.96 in 5.0 mi Calm Calm - N/A Snow Light Snow
12:55 AM 19.4 °F 11.5 °F 17.6 °F 93% 29.96 in 4.0 mi ESE 5.8 mph - N/A Snow Light Snow
1:15 AM 19.4 °F 14.3 °F 17.6 °F 93% 29.96 in 4.0 mi East 3.5 mph - N/A Snow Light Snow
1:35 AM 21.2 °F - 17.6 °F 86% 29.97 in 5.0 mi Calm Calm - N/A Snow Light Snow
1:55 AM 19.4 °F 12.8 °F 15.8 °F 86% 29.97 in 5.0 mi North 4.6 mph - N/A Snow Light Snow
2:15 AM 19.4 °F 11.5 °F 14.0 °F 80% 29.97 in 10.0 mi North 5.8 mph - N/A   Overcast
2:35 AM 19.4 °F 14.3 °F 15.8 °F 86% 29.97 in 5.0 mi NE 3.5 mph - N/A Snow Light Snow
2:55 AM 19.4 °F - 14.0 °F 80% 29.98 in 5.0 mi Calm Calm - N/A Snow Light Snow
3:15 AM 19.4 °F - 15.8 °F 86% 29.97 in 3.0 mi Calm Calm - N/A Snow Light Snow
3:35 AM 14.0 °F - 12.2 °F 93% 29.97 in 1.8 mi Calm Calm - N/A Snow Light Snow
3:55 AM 10.4 °F - 8.6 °F 92% 29.97 in 2.5 mi Calm Calm - N/A Snow Light Snow
4:15 AM 12.2 °F 2.9 °F 10.4 °F 92% 29.97 in 5.0 mi East 5.8 mph - N/A Snow Light Snow
4:35 AM 12.2 °F 6.1 °F 10.4 °F 92% 29.98 in 10.0 mi East 3.5 mph - N/A   Clear
4:55 AM 10.4 °F - 8.6 °F 92% 29.98 in 10.0 mi Calm Calm - N/A Snow Light Snow
5:15 AM 12.2 °F - 8.6 °F 85% 29.99 in 10.0 mi Calm Calm - N/A Snow Light Snow
5:35 AM 12.2 °F - 10.4 °F 92% 29.99 in 7.0 mi Calm Calm - N/A Snow Light Snow
5:55 AM 12.2 °F - 8.6 °F 85% 30.00 in 7.0 mi Calm Calm - N/A Snow Light Snow
6:15 AM 8.6 °F - 5.0 °F 85% 30.00 in 5.0 mi Calm Calm - N/A Snow Light Snow
6:35 AM 12.2 °F - 10.4 °F 92% 30.01 in 5.0 mi Calm Calm - N/A Snow Light Snow
6:55 AM 12.2 °F 6.1 °F 10.4 °F 92% 30.01 in 7.0 mi SSW 3.5 mph - N/A Snow Light Snow
7:15 AM 12.2 °F - 8.6 °F 85% 30.03 in 4.0 mi Calm Calm - N/A Snow Light Snow
7:35 AM 12.2 °F 6.1 °F 8.6 °F 85% 30.03 in 10.0 mi South 3.5 mph - N/A   Overcast
7:55 AM 10.4 °F 2.2 °F 6.8 °F 85% 30.05 in 1.5 mi East 4.6 mph - N/A Snow Light Snow
8:15 AM 8.6 °F 2.0 °F 5.0 °F 85% 30.05 in 4.0 mi ESE 3.5 mph - N/A Snow Light Snow
8:35 AM 8.6 °F - 5.0 °F 85% 30.06 in 5.0 mi Calm Calm - N/A Snow Light Snow
8:55 AM 10.4 °F - 6.8 °F 85% 30.07 in 2.5 mi Calm Calm - N/A Snow Light Snow
9:15 AM 12.2 °F - 8.6 °F 85% 30.07 in 5.0 mi Calm Calm - N/A Snow Light Snow
9:35 AM 17.6 °F - 10.4 °F 73% 30.07 in 10.0 mi Calm Calm - N/A   Clear
9:55 AM 17.6 °F - 8.6 °F 68% 30.07 in 10.0 mi Calm Calm - N/A   Clear
10:15 AM 19.4 °F - 8.6 °F 63% 30.08 in 10.0 mi Calm Calm - N/A   Clear
10:35 AM 19.4 °F - 8.6 °F 63% 30.08 in 10.0 mi Calm Calm - N/A   Clear
10:55 AM 21.2 °F - 8.6 °F 58% 30.08 in 10.0 mi Calm Calm - N/A   Clear
11:15 AM 21.2 °F - 8.6 °F 58% 30.08 in 10.0 mi Calm Calm - N/A   Clear
11:35 AM 23.0 °F - 10.4 °F 59% 30.08 in 10.0 mi Calm Calm - N/A   Clear
11:55 AM 24.8 °F - 10.4 °F 54% 30.08 in 10.0 mi Calm Calm - N/A   Clear
12:15 PM 26.6 °F - 10.4 °F 51% 30.07 in 10.0 mi Calm Calm - N/A   Clear
12:35 PM 24.8 °F - 10.4 °F 54% 30.07 in 10.0 mi Calm Calm - N/A   Mostly Cloudy
12:55 PM 23.0 °F - 8.6 °F 54% 30.06 in 10.0 mi Calm Calm - N/A   Overcast
1:15 PM 24.8 °F - 10.4 °F 54% 30.06 in 10.0 mi Calm Calm - N/A   Scattered Clouds
1:35 PM 26.6 °F - 10.4 °F 51% 30.05 in 10.0 mi Calm Calm - N/A   Clear
1:55 PM 28.4 °F - 10.4 °F 47% 30.05 in 10.0 mi Calm Calm - N/A   Clear
2:15 PM 28.4 °F - 10.4 °F 47% 30.04 in 10.0 mi Calm Calm - N/A   Clear
2:35 PM 28.4 °F - 12.2 °F 51% 30.04 in 10.0 mi Calm Calm - N/A   Clear
2:55 PM 30.2 °F - 12.2 °F 47% 30.04 in 10.0 mi Calm Calm - N/A   Clear
3:55 PM 28.4 °F 20.4 °F 17.6 °F 64% 30.05 in 10.0 mi WSW 8.1 mph - N/A   Clear
4:15 PM 24.8 °F 14.6 °F 15.8 °F 69% 30.05 in 10.0 mi WSW 10.4 mph - N/A   Clear
4:35 PM 28.4 °F 19.7 °F 17.6 °F 64% 30.05 in 10.0 mi WSW 9.2 mph - N/A   Clear
4:55 PM 26.6 °F 16.8 °F 17.6 °F 69% 30.06 in 10.0 mi WSW 10.4 mph - N/A   Clear
5:15 PM 24.8 °F 13.4 °F 17.6 °F 74% 30.06 in 10.0 mi SW 12.7 mph - N/A   Clear
5:35 PM 23.0 °F 11.7 °F 14.0 °F 68% 30.07 in 10.0 mi SW 11.5 mph - N/A   Clear
5:55 PM 21.2 °F 10.9 °F 14.0 °F 74% 30.07 in 10.0 mi SW 9.2 mph - N/A   Clear
6:15 PM 21.2 °F 12.6 °F 14.0 °F 74% 30.08 in 10.0 mi SW 6.9 mph - N/A   Clear
6:35 PM 19.4 °F 14.3 °F 10.4 °F 68% 30.10 in 10.0 mi SSE 3.5 mph - N/A   Clear
6:55 PM 15.8 °F 10.2 °F 8.6 °F 73% 30.10 in 10.0 mi SSE 3.5 mph - N/A   Clear
7:15 PM 14.0 °F - 8.6 °F 79% 30.10 in 10.0 mi Calm Calm - N/A   Clear
7:35 PM 10.4 °F - 6.8 °F 85% 30.10 in 10.0 mi Calm Calm - N/A   Clear
7:55 PM 8.6 °F - 3.2 °F 79% 30.11 in 10.0 mi Calm Calm - N/A   Clear
8:15 PM 10.4 °F 4.0 °F 5.0 °F 79% 30.11 in 10.0 mi East 3.5 mph - N/A   Clear
8:35 PM 12.2 °F 4.3 °F 8.6 °F 85% 30.13 in 10.0 mi East 4.6 mph - N/A   Clear
8:55 PM 12.2 °F 4.3 °F 5.0 °F 73% 30.14 in 10.0 mi ESE 4.6 mph - N/A   Clear
9:15 PM 10.4 °F 4.0 °F 5.0 °F 79% 30.14 in 10.0 mi SE 3.5 mph - N/A   Clear
9:35 PM 6.8 °F -0.1 °F 3.2 °F 85% 30.16 in 10.0 mi SSE 3.5 mph - N/A   Clear
9:55 PM 6.8 °F -0.1 °F 3.2 °F 85% 30.16 in 10.0 mi SSE 3.5 mph - N/A   Clear
10:15 PM 8.6 °F 2.0 °F 3.2 °F 79% 30.16 in 10.0 mi South 3.5 mph - N/A   Clear
10:35 PM 5.0 °F - 3.2 °F 92% 30.15 in 10.0 mi Calm Calm - N/A   Clear
10:55 PM 3.2 °F - -0.4 °F 85% 30.16 in 10.0 mi Calm Calm - N/A   Clear
11:15 PM 5.0 °F - 1.4 °F 85% 30.17 in 10.0 mi Calm Calm - N/A   Clear
11:35 PM 3.2 °F - -0.4 °F 85% 30.17 in 10.0 mi Calm Calm - N/A   Clear
11:55 PM 3.2 °F - -0.4 °F 85% 30.18 in 10.0 mi Calm Calm - N/A   Mostly Cloudy